Weather reports worldwide

Advertisment
Glasgow/Bishopton, United Kingdom (3134): temperature & dewpoint: 11.07.2019 06:00:00 - 17.07.2019 06:00:00 (BST)Glasgow/Bishopton, United Kingdom (3134): temperature -20cm & temperature -100cm: 11.07.2019 06:00:00 - 17.07.2019 06:00:00 (BST)Glasgow/Bishopton, United Kingdom (3134): wind speed & gusts: 11.07.2019 06:00:00 - 17.07.2019 06:00:00 (BST)Glasgow/Bishopton, United Kingdom (3134): wind direction: 11.07.2019 06:00:00 - 17.07.2019 06:00:00 (BST)Glasgow/Bishopton, United Kingdom (3134): reduced air pressure: 11.07.2019 06:00:00 - 17.07.2019 06:00:00 (BST)Glasgow/Bishopton, United Kingdom (3134): visibility: 11.07.2019 06:00:00 - 17.07.2019 06:00:00 (BST)Glasgow/Bishopton, United Kingdom (3134): sunshine duration: 11.07.2019 06:00:00 - 17.07.2019 06:00:00 (BST)Glasgow/Bishopton, United Kingdom (3134): precipitation: 11.07.2019 06:00:00 - 17.07.2019 06:00:00 (BST)
Date & Time tt [°C] td [°C] tt -20cm [°C] tt -100cm [°C] ff [km/h] ff [kn] fx [km/h] fx [kn] dd ppp [hPa] vv [km] sd [min] rr [mm]
17.07.2019 06:00:00 14,3 13,7 - - 9 5 - - S 1011,3 16 0 0,0
17.07.2019 05:00:00 13,9 13,2 - - 8 4 - - SSE 1011,8 8 0 0,0
17.07.2019 04:00:00 14,3 13,6 - - 8 4 - - ESE 1012,4 9 0 0,0
17.07.2019 03:00:00 14,7 13,9 - - 9 5 - - S 1013,1 9 0 0,0
17.07.2019 02:00:00 14,7 14,1 - - 8 4 - - SE 1013,6 7 0 0,2
17.07.2019 01:00:00 15,2 14,3 - - 8 4 - - S 1014,3 6 - 0,4
17.07.2019 00:00:00 15,5 13,7 - - 8 4 - - SE 1014,3 24 0 0,0
16.07.2019 23:00:00 16,2 13,8 - - 5 3 - - SSE 1014,8 30 0 0,0
16.07.2019 22:00:00 16,9 13,5 - - 5 3 - - SSW 1015,0 35 0 0,0
16.07.2019 21:00:00 17,7 13,5 - - 8 4 - - SW 1015,2 40 0 0,0
16.07.2019 20:00:00 18,9 14,0 - - 11 6 - - SSW 1015,1 35 42 0,0
16.07.2019 19:00:00 20,8 14,3 - - 13 7 - - SW 1015,3 40 54 0,0
16.07.2019 18:00:00 21,2 14,4 - - 11 6 - - WSW 1015,4 45 36 0,0
16.07.2019 17:00:00 20,6 13,7 - - 11 6 - - W 1015,7 50 12 0,0
16.07.2019 16:00:00 21,2 14,4 - - 13 7 - - W 1016,1 50 18 0,0
16.07.2019 15:00:00 21,0 15,3 - - 9 5 - - WSW 1016,3 40 6 0,0
16.07.2019 14:00:00 19,3 15,0 - - 4 2 - - N 1016,6 30 0 0,0
16.07.2019 13:00:00 18,9 14,8 - - 13 7 - - NNW 1017,0 24 18 0,0
16.07.2019 12:00:00 17,6 14,8 - - 5 3 - - NNW 1017,3 14 6 0,0
16.07.2019 11:00:00 17,2 14,4 - - 5 3 - - S 1017,4 - 0 0,0
16.07.2019 10:00:00 15,6 14,1 17,2 15,0 2 1 - - S 1017,7 - 0 -
16.07.2019 09:00:00 14,6 13,8 - - 2 1 - - SSE 1017,8 - 0 0,0
16.07.2019 08:00:00 13,6 13,3 - - 5 3 - - SW 1017,6 - 0 0,0
16.07.2019 07:00:00 13,3 13,1 - - 8 4 - - N 1017,8 - 0 0,0
16.07.2019 06:00:00 12,1 11,8 - - 2 1 - - S 1017,9 - 0 0,0
16.07.2019 05:00:00 12,2 11,9 - - 4 2 - - WSW 1018,1 - 0 0,0
16.07.2019 04:00:00 12,1 11,7 - - 2 1 - - S 1018,0 - 0 0,0
16.07.2019 03:00:00 11,6 11,0 - - 2 1 - - WSW 1018,6 - 0 0,0
16.07.2019 02:00:00 12,0 11,2 - - 4 2 - - SW 1018,8 - 0 0,0
16.07.2019 01:00:00 12,8 11,7 - - 4 2 - - S 1019,0 6 - 0,0
16.07.2019 00:00:00 13,4 11,7 - - 4 2 - - E 1019,2 - 0 0,0
15.07.2019 23:00:00 14,5 11,9 - - 8 4 - - SSW 1019,5 - 0 0,0
15.07.2019 22:00:00 15,6 11,0 - - 2 1 - - SSE 1019,3 - 0 0,0
15.07.2019 21:00:00 17,7 11,7 - - 8 4 - - SW 1019,3 - 0 0,0
15.07.2019 20:00:00 19,9 12,8 - - 9 5 - - WSW 1019,1 - 18 0,0
15.07.2019 19:00:00 20,3 14,7 - - 11 6 - - NNW 1019,1 - 0 0,0
15.07.2019 18:00:00 19,9 14,0 - - 13 7 - - NW 1019,2 - 0 0,0
15.07.2019 17:00:00 21,3 13,2 - - 8 4 - - WNW 1019,5 - 18 0,0
15.07.2019 16:00:00 21,5 11,6 - - 5 3 - - SSE 1020,0 - 30 0,0
15.07.2019 15:00:00 21,7 12,0 - - 5 3 - - WSW 1020,3 - 24 0,0
15.07.2019 14:00:00 21,4 12,6 - - 8 4 - - SSE 1020,7 - 18 0,0
15.07.2019 13:00:00 20,9 11,9 - - 5 3 - - SW 1021,0 - 18 0,0
15.07.2019 12:00:00 21,3 13,5 - - 8 4 - - ESE 1021,4 60 60 0,0
15.07.2019 11:00:00 19,3 12,5 - - 5 3 - - SSE 1021,9 - 60 0,0
15.07.2019 10:00:00 17,6 12,6 17,0 14,9 8 4 - - ESE 1022,4 40 60 0,0
15.07.2019 09:00:00 17,0 12,9 - - 5 3 - - SE 1022,8 35 60 0,0
15.07.2019 08:00:00 14,6 12,1 - - 8 4 - - ENE 1022,9 28 36 0,0
15.07.2019 07:00:00 12,7 11,8 - - 4 2 - - ENE 1023,0 30 0 0,0
15.07.2019 06:00:00 12,0 11,4 - - 8 4 - - NNW 1023,2 30 0 0,0
15.07.2019 05:00:00 11,5 11,1 - - 8 4 - - NNW 1023,3 22 0 0,0
15.07.2019 04:00:00 10,5 9,4 - - 2 1 - - S 1023,6 26 0 0,0
15.07.2019 03:00:00 11,5 10,6 - - 4 2 - - SE 1024,0 40 0 0,0
15.07.2019 02:00:00 11,6 10,5 - - 4 2 - - SE 1024,1 35 0 0,0
15.07.2019 01:00:00 11,8 10,0 - - 5 3 - - E 1023,8 60 - 0,0
15.07.2019 00:00:00 12,7 9,7 - - 5 3 - - NW 1023,6 75 0 0,0
14.07.2019 23:00:00 13,7 9,8 - - 4 2 - - WSW 1023,7 75 0 0,0
14.07.2019 22:00:00 15,6 9,7 - - 4 2 - - W 1023,5 75 24 0,0
14.07.2019 21:00:00 18,8 10,9 - - 8 4 - - W 1023,4 75 60 0,0
14.07.2019 20:00:00 20,3 11,0 - - 8 4 - - WSW 1023,5 75 42 0,0
14.07.2019 19:00:00 19,8 11,4 - - 4 2 - - SW 1023,7 75 12 0,0
14.07.2019 18:00:00 21,6 11,0 - - 2 1 - - SSE 1023,9 75 30 0,0
14.07.2019 17:00:00 21,2 11,5 - - 4 2 - - W 1024,3 75 12 0,0
14.07.2019 16:00:00 20,1 11,5 - - 5 3 - - WNW 1024,6 75 12 0,0
14.07.2019 15:00:00 20,2 11,5 - - 5 3 - - ESE 1024,8 75 0 0,0
14.07.2019 14:00:00 19,3 12,1 - - 9 5 - - NNW 1025,0 70 12 0,0
14.07.2019 13:00:00 19,5 11,4 - - 9 5 - - NNW 1025,1 65 18 0,0
14.07.2019 12:00:00 19,4 11,2 - - 8 4 - - NW 1025,1 45 42 0,0
14.07.2019 11:00:00 18,1 11,6 - - 5 3 - - NE 1025,3 40 42 0,0
14.07.2019 10:00:00 17,9 10,8 17,0 14,7 4 2 - - NNW 1025,4 25 60 0,0
14.07.2019 09:00:00 15,9 10,4 - - 4 2 - - N 1025,5 55 60 0,0
14.07.2019 08:00:00 14,6 11,1 - - 9 5 - - NNW 1025,3 55 54 0,0
14.07.2019 07:00:00 12,3 10,6 - - 16 9 - - NNW 1025,4 55 12 0,0
14.07.2019 06:00:00 11,1 10,0 - - 15 8 - - NNW 1025,2 45 0 0,0
14.07.2019 05:00:00 10,7 9,5 - - 15 8 - - NNW 1025,3 50 0 0,0
14.07.2019 04:00:00 11,2 9,2 - - 15 8 - - NNW 1025,3 65 0 0,0
14.07.2019 03:00:00 11,5 9,3 - - 18 10 - - NNW 1025,7 60 0 0,0
14.07.2019 02:00:00 11,9 9,6 - - 16 9 - - NNW 1025,4 65 0 0,0
14.07.2019 01:00:00 12,2 9,4 - - 16 9 - - NW 1025,4 65 - 0,0
14.07.2019 00:00:00 12,8 9,8 - - 21 11 - - NW 1025,0 70 0 0,0
13.07.2019 23:00:00 13,2 9,8 - - 15 8 - - NW 1024,8 70 0 0,0
13.07.2019 22:00:00 14,4 10,0 - - 24 13 - - NW 1024,3 75 18 0,0
13.07.2019 21:00:00 15,8 10,2 - - 26 14 - - NW 1024,0 75 60 0,0
13.07.2019 20:00:00 17,0 10,2 - - 28 15 - - NW 1023,6 75 60 0,0
13.07.2019 19:00:00 17,8 10,0 - - 29 16 48 26 NW 1023,5 75 60 0,0
13.07.2019 18:00:00 18,5 10,5 - - 31 17 - - NW 1023,3 75 60 0,0
13.07.2019 17:00:00 19,0 11,1 - - 28 15 - - NW 1023,4 75 60 0,0
13.07.2019 16:00:00 19,3 11,7 - - 24 13 - - NW 1023,4 75 60 0,0
13.07.2019 15:00:00 19,2 11,7 - - 21 11 - - NW 1023,4 75 60 0,0
13.07.2019 14:00:00 18,5 11,1 - - 28 15 - - NW 1023,5 75 42 0,0
13.07.2019 13:00:00 18,0 12,3 - - 26 14 - - NW 1023,4 75 24 0,0
13.07.2019 12:00:00 18,5 13,1 - - 24 13 - - NW 1023,2 75 54 0,0
13.07.2019 11:00:00 16,7 13,3 - - 24 13 - - NW 1023,1 75 6 0,0
13.07.2019 10:00:00 17,3 12,7 17,0 14,7 24 13 - - NW 1022,9 70 54 0,0
13.07.2019 09:00:00 16,8 13,0 - - 22 12 - - NW 1022,4 65 42 0,0
13.07.2019 08:00:00 15,8 12,5 - - 22 12 - - NW 1022,2 65 6 0,0
13.07.2019 07:00:00 15,0 12,5 - - 16 9 - - NW 1021,8 60 0 0,0
13.07.2019 06:00:00 14,9 12,1 - - 15 8 - - NW 1021,4 60 0 0,0
13.07.2019 05:00:00 14,9 12,4 - - 16 9 - - NW 1021,4 55 0 0,0
13.07.2019 04:00:00 15,0 12,5 - - 16 9 - - NW 1020,9 60 0 0,0
13.07.2019 03:00:00 15,1 12,6 - - 21 11 - - NW 1020,9 60 0 0,0
13.07.2019 02:00:00 15,2 12,8 - - 21 11 - - NW 1020,6 65 0 0,0
13.07.2019 01:00:00 15,2 12,7 - - 21 11 - - NW 1020,3 70 - 0,0
13.07.2019 00:00:00 15,4 12,9 - - 22 12 - - NW 1020,0 65 0 0,0
12.07.2019 23:00:00 15,4 12,5 - - 21 11 - - WNW 1019,5 60 0 0,0
12.07.2019 22:00:00 15,6 12,3 - - 21 11 - - WNW 1019,0 60 0 0,0
12.07.2019 21:00:00 16,5 12,4 - - 16 9 - - WNW 1018,3 65 36 0,0
12.07.2019 20:00:00 17,9 13,1 - - 16 9 - - WNW 1018,1 65 60 0,0
12.07.2019 19:00:00 19,4 13,3 - - 21 11 - - WNW 1017,3 75 60 0,0
12.07.2019 18:00:00 20,3 13,9 - - 18 10 - - NW 1016,9 75 60 0,0
12.07.2019 17:00:00 20,5 14,3 - - 21 11 - - NW 1016,5 75 48 0,0
12.07.2019 16:00:00 20,7 14,4 - - 21 11 - - NW 1016,2 70 42 0,0
12.07.2019 15:00:00 19,4 13,7 - - 15 8 - - WNW 1015,9 70 6 0,0
12.07.2019 14:00:00 19,4 13,7 - - 13 7 - - W 1015,6 50 24 0,0
12.07.2019 13:00:00 20,2 14,9 - - 18 10 - - NW 1015,4 75 54 0,0
12.07.2019 12:00:00 18,8 13,3 - - 18 10 - - NNW 1015,2 75 54 0,0
12.07.2019 11:00:00 18,4 13,7 - - 16 9 - - NW 1014,8 75 60 0,0
12.07.2019 10:00:00 17,4 13,4 16,7 14,7 21 11 - - NW 1014,6 75 60 0,0
12.07.2019 09:00:00 16,3 13,4 - - 21 11 - - NW 1014,1 75 60 0,0
12.07.2019 08:00:00 14,8 12,6 - - 21 11 - - NW 1013,5 70 60 0,0
12.07.2019 07:00:00 13,5 12,1 - - 16 9 - - NNW 1012,8 65 24 0,0
12.07.2019 06:00:00 11,9 10,8 - - 4 2 - - NE 1012,6 65 0 0,0
12.07.2019 05:00:00 11,8 10,5 - - 8 4 - - NNW 1011,8 65 0 0,0
12.07.2019 04:00:00 12,8 11,3 - - 15 8 - - NW 1011,2 75 0 0,0
12.07.2019 03:00:00 12,8 11,4 - - 11 6 - - WNW 1011,1 75 0 0,0
12.07.2019 02:00:00 13,7 12,6 - - 8 4 - - WNW 1011,0 55 0 0,0
12.07.2019 01:00:00 13,3 12,3 - - 9 5 - - WNW 1010,7 30 - 0,0
12.07.2019 00:00:00 14,2 12,9 - - 15 8 - - W 1010,6 55 0 0,0
11.07.2019 23:00:00 14,7 12,8 - - 11 6 - - W 1010,6 45 0 0,0
11.07.2019 22:00:00 15,3 12,8 - - 13 7 - - W 1010,3 50 0 0,0
11.07.2019 21:00:00 15,9 12,5 - - 9 5 - - WSW 1009,5 50 12 0,0
11.07.2019 20:00:00 17,0 12,6 - - 11 6 - - W 1009,5 60 18 0,0
11.07.2019 19:00:00 17,6 12,9 - - 15 8 - - NW 1009,1 50 18 0,0
11.07.2019 18:00:00 17,6 12,6 - - 13 7 - - NW 1009,2 55 6 0,0
11.07.2019 17:00:00 18,6 13,0 - - 18 10 - - WNW 1008,9 40 42 0,0
11.07.2019 16:00:00 18,8 13,3 - - 16 9 - - WNW 1008,8 70 30 0,0
11.07.2019 15:00:00 18,7 14,3 - - 15 8 - - WNW 1008,7 45 48 0,0
11.07.2019 14:00:00 18,8 15,1 - - 18 10 - - NNW 1008,4 50 24 0,0
11.07.2019 13:00:00 18,7 15,4 - - 13 7 - - NNW 1008,4 55 0 0,0
11.07.2019 12:00:00 17,1 15,4 - - 11 6 - - NW 1008,5 40 0 0,0
11.07.2019 11:00:00 17,1 15,4 - - 11 6 - - W 1008,5 14 0 0,0
11.07.2019 10:00:00 16,4 15,8 16,4 14,7 9 5 - - SSW 1008,5 7 0 1,0
11.07.2019 09:00:00 16,7 16,2 - - 5 3 - - S 1008,3 30 0 0,0
11.07.2019 08:00:00 15,5 15,1 - - 8 4 - - SSW 1008,3 23 0 0,0
11.07.2019 07:00:00 15,6 15,3 - - 4 2 - - SSW 1008,4 12 0 0,0
11.07.2019 06:00:00 15,2 14,9 - - 9 5 - - SSW 1008,6 13 0 0,0

tt = temperature
td = dewpoint
tt -20cm = temperature -20cm
tt -100cm = temperature -100cm
ff = wind speed
fx = gusts
dd = wind direction
ppp = reduced air pressure
vv = visibility
sd = sunshine duration
rr = precipitation

Next stations